sat.trackr.live / text

‹ back to catalog

STARLINK-5257

NORAD 55316 · 2023-010AZ

PAYLOAD ACTIVE UNKNOWN

§ Identity

Operator
Country
US
Launch date
2023-01-19
Launch site
AFWTR
Launch vehicle
Mass (kg)
RCS (m²)

Purposes: comms

External: N2YO · Heavens-Above · Gunter

§ Orbital elements

Epoch: 2026-05-25T02:52:02.856864Z

Period
96.11 min
Inclination
69.9984°
Eccentricity
0.0003919
Mean motion
14.98320491 rev/d
Perigee alt
569.4 km
Apogee alt
574.8 km
Semi-major
6,950.2 km
B*
5.5509e-5
RAAN
171.6465°
Arg perigee
273.1832°
Mean anomaly
86.8879°
Rev number
18,609

§ Raw data

STARLINK-52571 55316U 23010AZ  26145.11947751  .00000569  00000+0  55509-4 0  99962 55316  69.9984 171.6465 0003919 273.1832  86.8879 14.98320491186096

JSON: /api/v1/satellites/55316 · /tle

For live sub-satellite position, see the globe view (requires WebGL).

§ Visibility from observer

Set your observer location to see the next 7 days of passes ≥ 10°. The values pass through the URL so the page stays shareable.

No JS? Fill the form by hand. The geolocation button needs JavaScript.